Location: Berg
(47.2344°N, 9.5296°E)
Time: 16:22:00
(UTC+00:00)

CZ-4 R/B - Pass Details

Date: 24 January 2021
Orbit: 530 x 599 km, 97.7° (Epoch: 01 March)

Event Time Altitude Azimuth Distance (km) Brightness Sun altitude
Rises 17:51:45 0° 165° (SSE) 2,785 4.9 -16.8°
Reaches altitude 10° 17:53:55 10° 166° (SSE) 1,881 4.0 -17.1°
Maximum altitude 17:58:00 89° 256° (WSW) 574 1.3 -17.8°
Drops below altitude 10° 18:02:01 10° 347° (NNW) 1,855 4.1 -18.5°
Sets 18:04:08 0° 347° (NNW) 2,743 4.9 -18.9°
